Location: *
(10.4782°N, 67.2163°W)
Time: 02:03:25
(UTC+00:00)

SL-8 R/B - Pass Details

Date: 23 May 2024
Orbit: 652 x 662 km, 48.4° (Epoch: 12 June)

Event Time Altitude Azimuth Distance (km) Brightness Sun altitude
Rises 09:22:57 0° 310° (NW) 2,972 6.8 -10.6°
Reaches altitude 10° 09:25:22 10° 304° (NW) 2,063 5.9 -10.1°
Maximum altitude 09:29:55 46° 232° (SW) 885 3.9 -9.1°
Drops below altitude 10° 09:34:29 10° 159° (SSE) 2,067 6.2 -8.0°
Sets 09:36:54 0° 153° (SSE) 2,979 7.1 -7.5°
